Regional Weather Roundup
Issued by NWS Midland/Odessa, TX

Skip options and go directly to product.
Home | Oldest Version | Previous Version | Current Version | All | Text Only | Save Text | Print | Product List | Glossary On

Skip product version selection by date and time.   
641
ASUS44 KMAF 230410
RWRMAF
MIDLAND AREA WEATHER ROUNDUP
NATIONAL WEATHER SERVICE MIDLAND TX
1100 PM CDT FRI MAY 22 2015

...IN SOUTHWEST TEXAS AND SOUTHEAST NEW MEXICO...

CITY           SKY/WX    TMP DP  RH WIND       PRES   REMARKS
ALPINE         MOCLDY    68  61  79 S8        30.07S
ANDREWS        CLOUDY    69  64  84 S21G28    30.01R
ARTESIA        MOCLDY    68  64  88 SE18      29.96R
BIG SPRING     CLOUDY    74  66  75 SE15      30.05R
CARLSBAD       CLOUDY    70  65  84 SE20G25   29.95R
DRYDEN           N/A     76  68  76 SE14G23   29.97R
FORT STOCKTON  MOCLDY    71  65  81 SE21G38   29.94F
GUAD PASS      MOCLDY    63  59  87 NE33G41   30.03R
HOBBS          CLOUDY    64  64 100 E12G18    30.03R FOG
MARFA          CLEAR     64  61  88 E10       30.06S
MIDLAND AIRPK  MOCLDY    72  64  74 SE17G23   30.01F
MIDLAND INTL   MOCLDY    71  63  75 SE18      30.00S
ODESSA         MOCLDY    71  62  73 SE21      30.01R
PECOS          CLOUDY    71  64  78 SE17G23   29.92S
PRESIDIO       FAIR      76  63  64 MISG      29.87R
SEMINOLE       CLOUDY    65  64  99 E15       30.02S FOG
SNYDER         CLOUDY    66  65  98 E7        30.06R FOG
WINK           CLOUDY    73  62  68 SE18G29   29.94R
$$
...OTHER STATIONS IN TEXAS...

CITY           SKY/WX    TMP DP  RH WIND       PRES   REMARKS
ABILENE        CLOUDY    70  66  87 SE14      30.06R
AMARILLO       FOG       58  57  97 SE17      30.08S VSB 1/2
AUSTIN         CLOUDY    74  72  93 SE9       30.06R
BROWNSVILLE    MOCLDY    80  75  84 SE9       30.02R
CORPUS CHRISTI PTCLDY    79  75  87 SE12      30.02R
DALLAS FTW     CLOUDY    66  65  96 NE3       30.10R
DEL RIO        CLOUDY    78  69  73 E12       29.96S
EL PASO        CLOUDY    82  11   7 W18G28    29.90R
HOUSTON INT    MOCLDY    73  70  90 E9        30.10R
LUBBOCK        DRZL/FOG  60  60 100 E13       30.05R VSB 1/4
SAN ANGELO     PTCLDY    72  66  81 SE6       30.04R
SAN ANTONIO    CLOUDY    77  73  87 SE12      30.06R
WACO           CLOUDY    73  68  84 SE7       30.09R
WICHITA FALLS  NOT AVBL
$$
...OTHER LOCATIONS IN NEW MEXICO...

CITY           SKY/WX    TMP DP  RH WIND       PRES   REMARKS
ALAMAGORDO     CLOUDY    66  19  16 SE10      29.92R
ALBUQUERQUE    PTCLDY    66  28  24 SE14      29.93R
CANNON AFB     NOT AVBL
CLOVIS         CLOUDY    57  55  94 SE13      30.06S
HOLLOMAN AFB   CLOUDY    70  29  21 S8        29.88R
ROSWELL        CLOUDY    65  60  84 SE6       29.97R
RUIDOSO        MOCLDY    57  54  88 SE15      30.12R
SANTA FE       PTCLDY    57  46  66 SE21G29   29.99R
TRUTH OR CONSE PTCLDY    70  20  15 SW9       29.92R
TUCUMCARI      CLOUDY    60  55  83 SE14      30.02R
$$

USA.gov is the U.S. government's official web portal to all federal, state and local government web resources and services.